Location: Unspecified
(48.8656°N, 0.0000°E)
Time: 10:33:20
(UTC+00:00)

Altair - Pass Details

Date: 23 June 2019
Orbit: 1501 x 1683 km, 47.2° (Epoch: 20 July)

Event Time Altitude Azimuth Distance (km) Brightness Sun altitude
Rises 00:37:50 0° 285° (WNW) 4,819 10.2 -17.3°
Reaches altitude 10° 00:40:57 10° 282° (WNW) 3,855 9.6 -17.2°
Maximum altitude 00:50:38 62° 205° (SSW) 1,834 7.6 -16.9°
Drops below altitude 10° 01:00:32 10° 128° (SE) 3,939 9.4 -16.5°
Sets 01:03:45 0° 126° (SE) 4,928 9.9 -16.4°
